Wind_Speed
55 52 53 52 48 44 49 54 58 63 63 65 65 63 64 69 71 71 69 67 65 64 65 63 64 60 56 55 64 65 61 59 60 59 59 61 61 62 65 65 71 73 77 78 80
56 53 55 55 56 54 57 57 60 64 67 67 69 72 75 72 72 70 77 69 69 69 70 69 69 67 62 55 60 65 63 62 62 64 63 63 64 64 68 68 74 79 81 82 86
56 57 56 57 55 58 59 60 61 66 68 68 74 71 74 75 77 77 75 76 75 74 73 69 70 69 62 57 58 65 65 66 66 65 65 66 67 67 69 70 76 80 86 90 93
55 56 59 58 57 59 64 64 68 69 71 69 72 71 72 74 75 80 80 78 78 76 77 79 73 66 66 60 57 60 67 66 64 66 64 64 66 67 72 75 75 81 85 89 93
58 59 61 59 61 60 61 64 65 68 68 69 75 74 79 81 80 80 83 81 80 80 77 73 62 64 61 56 57 57 64 66 63 64 65 67 67 69 73 75 79 84 87 90 96
62 60 59 59 61 63 63 68 74 71 73 74 74 75 79 82 83 84 85 83 83 79 76 63 57 55 54 56 56 56 61 66 65 66 67 68 68 71 73 79 84 85 91 96 100
65 65 63 60 61 65 68 70 71 72 73 75 77 79 84 88 90 92 93 87 81 78 70 56 52 49 51 54 54 56 58 65 64 63 65 68 70 72 77 80 83 90 94 101 99
63 67 66 65 69 74 75 75 75 76 81 83 86 86 86 95 103 100 91 82 77 73 61 51 48 44 46 50 51 55 57 62 66 60 62 67 67 73 77 81 85 92 98 104 104
72 72 72 71 76 77 82 80 80 84 90 89 90 90 97 102 109 90 78 75 69 66 53 47 42 40 42 48 49 50 55 62 59 58 63 64 68 76 77 84 89 94 100 105 104
75 77 77 79 83 87 87 86 85 91 93 94 95 96 99 101 107 80 72 63 65 56 48 41 36 37 40 41 45 49 56 59 62 61 64 67 74 74 78 82 88 94 100 101 106
81 82 83 86 88 89 90 90 90 92 97 97 94 98 104 109 100 71 58 59 59 48 43 38 35 32 36 39 42 49 56 55 55 59 63 69 69 75 79 84 90 97 95 101 95
86 84 87 86 88 91 96 95 92 93 91 94 96 101 110 99 80 61 56 58 48 42 37 35 33 31 32 35 37 43 52 54 53 56 61 65 72 73 81 86 92 91 96 89 91
89 90 94 97 93 99 103 95 93 91 91 98 97 101 103 82 67 56 55 49 42 37 34 32 29 28 29 34 41 44 43 46 52 54 59 62 66 71 78 89 89 94 87 80 80
95 96 99 98 99 99 99 99 94 97 92 90 95 105 91 73 62 52 50 42 37 32 31 29 24 24 29 31 37 35 39 47 54 59 59 61 63 70 78 85 91 89 81 83 80
99 97 98 97 98 97 100 103 102 98 92 97 105 106 81 66 55 49 43 37 34 30 29 27 24 26 30 33 36 39 46 51 54 55 60 63 64 71 81 85 87 85 80 83 78
96 99 97 99 98 97 102 103 105 105 109 106 104 88 67 56 52 47 38 34 31 27 27 27 26 27 31 30 34 40 43 48 52 55 58 63 68 76 77 77 82 77 77 77 70
104 105 105 103 102 103 106 107 109 108 108 105 89 70 62 52 50 43 36 32 30 25 25 28 28 29 33 32 34 38 43 46 51 55 58 61 68 73 73 72 72 71 76 72 56
114 114 114 108 104 107 110 108 107 108 105 86 71 65 54 50 48 41 35 31 28 25 24 26 26 31 32 36 37 39 42 45 48 51 56 61 66 68 67 70 67 65 67 60 45
122 122 117 112 110 104 105 107 103 103 95 76 63 61 49 47 41 38 34 31 28 25 25 28 30 30 31 34 36 40 41 43 49 51 57 61 63 66 68 65 64 65 64 50 37
108 97 99 102 99 101 101 94 95 86 83 67 59 53 46 42 38 38 33 31 28 26 26 29 32 29 30 31 34 38 42 46 49 51 54 58 61 66 64 65 64 58 56 40 28
87 82 82 80 81 76 79 75 69 70 63 58 55 47 41 38 38 36 32 29 28 27 27 28 32 37 35 35 37 40 44 45 48 50 52 56 61 56 56 57 58 52 48 32 19
76 73 70 68 63 59 59 56 56 56 52 52 47 41 39 37 39 35 30 29 28 26 26 28 30 34 36 37 39 43 44 46 48 51 51 56 50 49 53 54 50 48 38 25 10
68 64 64 60 58 55 51 49 50 50 49 46 40 39 37 37 37 32 30 29 27 26 26 28 28 30 35 39 41 41 43 46 47 48 48 43 42 47 47 46 44 44 28 17 2
62 59 60 56 51 46 44 46 46 45 42 40 40 38 37 36 33 31 31 29 26 25 27 28 29 30 30 32 33 37 40 42 43 39 36 36 40 42 42 39 39 36 22 11 11
59 56 54 51 45 42 43 43 41 40 35 34 38 37 35 32 30 29 30 28 26 24 26 27 29 31 30 31 32 34 36 35 30 31 29 34 39 40 35 35 35 30 19 5 18
55 52 51 49 44 41 41 40 40 37 35 35 36 36 30 32 29 30 29 28 25 23 22 23 24 26 27 28 29 28 27 26 27 26 27 33 33 35 28 31 30 27 15 3 24
48 47 44 46 41 39 38 39 38 35 36 37 35 33 30 29 29 31 29 26 24 22 20 17 18 20 21 23 24 24 24 23 22 24 26 27 31 26 24 28 26 23 13 8 28
Wind_Direction
307 308 306 305 304 302 304 304 306 310 309 312 312 313 313 311 309 309 310 307 303 293 298 291 291 283 277 275 271 269 270 265 265 269 272 274 273 275 279 276 276 280 282 286 286
302 299 300 299 300 298 301 303 304 304 308 311 312 310 309 308 306 304 308 306 305 301 298 293 291 285 281 270 267 265 265 266 267 269 270 273 273 275 278 275 276 280 285 288 288
294 296 297 298 296 299 301 302 301 308 311 308 308 308 307 307 307 305 303 303 302 300 296 292 286 284 276 269 266 264 261 264 267 269 271 271 272 278 277 277 281 285 287 288 290
291 292 293 294 295 297 297 300 302 306 307 308 307 303 307 308 306 305 303 303 303 302 298 298 286 277 276 270 263 263 258 260 264 268 268 270 272 276 274 279 283 283 286 289 288
297 293 292 293 294 299 303 303 304 306 305 301 303 305 306 307 306 307 306 305 304 303 302 295 283 278 271 267 263 264 258 257 262 268 270 271 273 277 279 283 284 290 291 287 293
298 296 295 296 300 301 301 302 300 297 303 306 304 305 306 308 309 308 307 303 304 302 304 295 283 273 266 262 258 258 257 258 262 268 270 273 274 278 281 284 290 291 292 290 295
294 296 296 295 299 302 299 299 300 300 302 308 311 311 312 314 312 308 308 306 304 303 303 291 280 271 261 258 253 254 253 255 261 267 270 273 276 279 284 288 291 292 291 291 298
291 291 291 292 297 295 298 300 298 301 304 307 307 310 314 315 317 310 307 304 303 303 299 288 280 266 258 254 249 251 252 256 260 269 272 274 275 281 283 288 291 292 292 294 301
292 293 287 289 291 293 298 297 298 300 304 304 307 309 311 313 315 309 305 304 301 301 296 286 274 262 258 249 247 250 251 256 260 270 273 274 278 281 283 289 292 292 295 298 305
290 288 285 286 291 292 295 296 297 297 300 302 307 308 311 314 313 306 303 304 302 298 292 284 269 258 250 249 249 249 250 256 260 266 272 277 279 286 289 291 293 296 298 304 307
287 289 290 292 293 293 294 296 297 297 300 301 306 307 312 312 310 303 302 304 301 296 289 281 271 253 246 248 251 245 252 258 260 271 271 276 281 286 287 290 295 299 305 309 312
289 290 292 293 294 296 296 298 300 298 302 304 307 309 310 310 306 301 302 304 299 294 287 279 267 259 250 248 245 249 251 257 268 270 272 275 281 288 292 294 296 302 308 313 313
287 289 291 291 292 294 294 294 298 300 305 305 309 309 310 308 301 299 304 301 297 292 284 276 268 263 249 245 244 252 255 261 264 268 274 286 289 293 295 295 301 306 312 315 314
287 289 290 290 292 291 292 292 294 298 304 307 307 311 309 303 298 298 304 299 295 287 277 272 262 258 252 254 246 245 260 261 268 274 278 283 290 295 296 299 306 310 319 318 322
288 288 289 292 292 291 291 293 297 301 305 305 307 309 303 299 294 298 300 295 290 278 268 261 255 249 245 247 241 252 260 268 271 273 277 283 292 295 298 304 309 315 321 321 331
287 289 288 289 291 292 292 294 298 302 302 306 305 304 298 292 291 298 296 291 285 273 263 255 247 244 237 237 244 252 259 264 270 276 282 286 293 296 303 308 312 321 325 325 331
286 286 286 288 289 291 292 295 298 300 303 305 302 297 295 289 291 294 291 286 279 268 255 245 245 241 235 236 244 253 261 268 275 280 287 292 298 302 306 311 319 323 323 327 329
285 286 286 285 286 287 288 292 296 298 300 301 298 294 288 285 289 289 286 281 272 262 250 243 240 241 244 241 248 252 260 269 279 285 293 296 301 304 311 318 322 325 322 334 333
287 286 283 283 282 283 287 289 291 293 294 296 291 291 284 284 285 283 279 276 265 254 246 240 237 239 242 247 253 258 267 275 281 286 294 300 305 309 315 319 324 329 328 339 338
287 285 283 282 282 283 285 288 289 290 291 287 286 284 282 280 279 279 272 269 258 250 244 238 236 241 247 252 258 267 270 278 283 289 296 302 306 311 317 320 324 329 335 341 342
287 284 284 284 282 283 283 284 283 282 280 279 280 279 275 274 275 273 265 259 251 249 248 242 240 240 245 252 261 267 274 281 286 291 299 301 306 311 316 323 324 332 340 345 346
285 282 282 283 283 281 283 281 278 276 275 274 275 271 268 272 273 265 259 253 248 245 247 247 244 246 251 257 262 268 274 280 287 295 299 303 306 313 320 324 327 336 344 350 354
283 281 279 281 280 277 278 276 272 271 269 268 268 264 266 267 263 259 255 250 246 244 242 244 248 251 254 257 261 267 274 283 288 293 297 301 307 314 324 325 332 337 350 354 82
279 278 277 276 276 274 272 268 267 268 267 264 262 260 263 263 259 254 249 245 244 244 244 246 250 253 257 263 270 272 276 283 289 290 296 303 309 316 327 327 338 340 356 354 147
275 274 274 272 269 267 263 261 262 263 261 256 256 259 260 258 249 243 244 242 243 243 242 245 250 256 263 268 270 272 276 280 279 285 298 304 312 321 329 331 342 345 357 15 156
273 271 268 265 262 257 256 256 257 257 254 252 255 255 252 244 237 235 235 240 244 242 243 243 245 250 255 258 263 265 266 270 279 290 295 304 313 325 330 333 349 350 7 91 161
265 263 258 256 253 249 249 253 252 249 250 251 250 252 245 236 229 230 230 236 238 240 243 245 246 247 247 250 254 257 262 273 280 285 296 304 319 326 336 339 355 357 11 138 166
Height
10803 10801 10797 10796 10794 10791 10788 10785 10781 10776 10773 10770 10765 10759 10756 10752 10748 10743 10740 10735 10730 10727 10722 10721 10717 10716 10713 10711 10712 10712 10713 10711 10710 10707 10705 10703 10700 10699 10695 10690 10686 10681 10678 10675 10670
10795 10792 10789 10787 10785 10783 10779 10776 10772 10767 10762 10758 10753 10748 10743 10740 10736 10730 10724 10720 10716 10711 10707 10703 10699 10698 10697 10696 10696 10697 10697 10696 10696 10694 10692 10689 10686 10684 10678 10675 10670 10664 10659 10655 10650
10785 10782 10780 10778 10775 10772 10769 10766 10760 10756 10750 10746 10741 10737 10731 10726 10721 10714 10710 10704 10698 10693 10688 10684 10680 10679 10680 10679 10680 10682 10682 10681 10681 10681 10678 10675 10672 10669 10663 10657 10652 10647 10640 10632 10627
10774 10771 10768 10766 10764 10761 10758 10754 10749 10743 10738 10735 10729 10723 10717 10712 10706 10700 10693 10687 10681 10674 10668 10661 10658 10660 10660 10662 10663 10665 10666 10666 10666 10665 10663 10660 10657 10654 10646 10642 10636 10630 10624 10616 10605
10763 10760 10757 10755 10752 10750 10746 10742 10737 10732 10727 10722 10716 10709 10703 10697 10690 10684 10676 10668 10660 10654 10647 10640 10637 10639 10640 10643 10646 10648 10651 10651 10652 10651 10648 10644 10642 10638 10630 10624 10619 10611 10603 10593 10585
10752 10749 10746 10744 10741 10737 10734 10730 10725 10719 10713 10708 10701 10695 10687 10681 10675 10667 10659 10653 10642 10634 10628 10620 10619 10619 10621 10625 10629 10633 10636 10638 10638 10637 10634 10630 10627 10622 10616 10608 10601 10593 10583 10570 10562
10741 10738 10734 10731 10728 10724 10721 10716 10709 10704 10699 10692 10686 10679 10671 10664 10657 10649 10640 10632 10624 10615 10608 10602 10600 10601 10604 10608 10612 10618 10621 10624 10624 10623 10620 10616 10612 10606 10601 10593 10584 10574 10563 10550 10539
10728 10725 10722 10718 10715 10712 10708 10702 10696 10688 10683 10677 10671 10663 10653 10642 10635 10625 10618 10611 10605 10598 10591 10586 10585 10585 10589 10592 10598 10604 10608 10612 10610 10610 10607 10602 10598 10591 10585 10578 10567 10557 10543 10530 10515
10714 10710 10707 10703 10699 10695 10692 10686 10681 10673 10667 10661 10656 10647 10636 10625 10617 10604 10598 10594 10587 10581 10575 10571 10570 10571 10575 10579 10583 10590 10597 10598 10599 10596 10594 10589 10582 10575 10570 10562 10552 10539 10526 10512 10496
10697 10694 10691 10687 10681 10676 10673 10668 10665 10658 10650 10644 10640 10630 10618 10609 10598 10587 10582 10575 10571 10565 10560 10557 10555 10557 10562 10566 10572 10579 10585 10586 10586 10583 10581 10577 10570 10563 10556 10547 10537 10524 10509 10494 10473
10680 10676 10673 10670 10665 10656 10652 10650 10647 10641 10632 10626 10624 10611 10600 10590 10578 10570 10566 10562 10557 10551 10547 10544 10545 10546 10550 10556 10562 10567 10572 10573 10574 10573 10569 10563 10557 10552 10542 10532 10522 10508 10493 10475 10452
10664 10660 10655 10653 10647 10638 10632 10631 10629 10625 10621 10606 10603 10593 10583 10572 10561 10555 10552 10549 10543 10538 10535 10535 10536 10539 10542 10547 10552 10557 10561 10564 10563 10560 10555 10551 10544 10541 10529 10517 10506 10495 10481 10464 10437
10645 10642 10639 10633 10630 10618 10610 10612 10611 10607 10608 10593 10586 10575 10564 10555 10548 10544 10540 10535 10531 10527 10525 10526 10528 10531 10534 10539 10544 10548 10552 10554 10550 10547 10544 10541 10533 10528 10516 10501 10491 10476 10466 10445 10421
10626 10624 10619 10613 10611 10599 10589 10585 10591 10589 10594 10580 10571 10558 10547 10540 10535 10531 10528 10524 10521 10518 10517 10519 10521 10524 10527 10532 10537 10541 10543 10540 10539 10538 10535 10532 10527 10518 10505 10488 10475 10462 10444 10425 10401
10606 10604 10598 10592 10588 10582 10570 10563 10562 10563 10573 10565 10553 10541 10532 10526 10522 10519 10516 10514 10512 10510 10511 10512 10514 10517 10520 10525 10530 10532 10530 10530 10528 10527 10524 10521 10516 10507 10496 10482 10462 10450 10432 10409 10392
10585 10582 10581 10575 10566 10561 10549 10546 10541 10541 10537 10540 10532 10524 10519 10515 10509 10506 10505 10504 10503 10503 10503 10505 10507 10510 10514 10517 10519 10520 10521 10520 10519 10517 10514 10510 10504 10497 10487 10476 10455 10436 10423 10400 10385
10563 10562 10558 10557 10550 10540 10530 10524 10527 10521 10514 10515 10511 10506 10503 10501 10497 10495 10494 10495 10495 10495 10496 10499 10501 10504 10506 10508 10511 10512 10513 10513 10510 10508 10505 10501 10496 10484 10476 10465 10448 10433 10416 10398 10382
10540 10538 10534 10534 10535 10522 10510 10510 10511 10503 10495 10495 10493 10490 10489 10488 10486 10484 10484 10485 10486 10486 10488 10491 10495 10498 10500 10501 10503 10504 10505 10505 10503 10501 10497 10492 10486 10474 10465 10452 10439 10428 10411 10396 10379
10512 10508 10503 10502 10506 10506 10496 10497 10494 10488 10481 10481 10481 10476 10476 10475 10474 10474 10474 10476 10477 10479 10481 10485 10488 10491 10494 10495 10497 10498 10497 10496 10496 10495 10489 10483 10476 10464 10455 10443 10430 10418 10402 10391 10379
10484 10477 10471 10475 10477 10480 10481 10475 10470 10465 10466 10465 10464 10464 10463 10462 10463 10465 10465 10467 10468 10470 10473 10477 10481 10485 10487 10489 10490 10490 10489 10488 10489 10487 10483 10475 10468 10458 10447 10436 10422 10414 10401 10389 10381
10458 10452 10445 10449 10453 10452 10456 10456 10453 10452 10452 10451 10452 10453 10452 10451 10452 10455 10456 10458 10460 10462 10465 10470 10473 10477 10479 10482 10483 10483 10482 10481 10480 10479 10475 10468 10461 10453 10444 10433 10420 10411 10400 10390 10383
10433 10430 10426 10428 10430 10432 10435 10436 10438 10437 10437 10438 10441 10441 10440 10441 10442 10445 10447 10449 10452 10455 10458 10461 10465 10469 10472 10475 10476 10475 10475 10474 10472 10470 10466 10461 10454 10449 10440 10428 10416 10408 10399 10392 10386
10411 10408 10406 10410 10411 10416 10417 10419 10421 10421 10422 10425 10428 10429 10430 10432 10433 10436 10438 10441 10444 10447 10451 10454 10458 10461 10464 10466 10468 10469 10469 10468 10466 10463 10458 10455 10451 10444 10437 10425 10415 10406 10400 10394 10390
10390 10388 10387 10393 10395 10398 10403 10404 10406 10408 10410 10415 10416 10418 10420 10423 10425 10428 10431 10434 10436 10440 10443 10448 10451 10454 10457 10460 10463 10463 10462 10460 10459 10456 10454 10449 10446 10441 10434 10422 10415 10407 10401 10396 10394
10368 10370 10371 10374 10380 10384 10388 10389 10393 10395 10400 10404 10404 10408 10412 10415 10417 10420 10423 10426 10429 10433 10437 10441 10444 10447 10450 10453 10454 10454 10454 10453 10452 10449 10450 10445 10442 10436 10430 10420 10414 10407 10401 10399 10398
10349 10352 10354 10357 10363 10369 10373 10375 10379 10385 10388 10392 10394 10398 10404 10406 10409 10412 10416 10420 10423 10426 10430 10434 10438 10441 10444 10446 10447 10447 10447 10446 10446 10446 10446 10443 10438 10432 10428 10419 10413 10407 10403 10401 10402
10328 10334 10339 10340 10348 10355 10359 10363 10367 10373 10376 10379 10384 10390 10396 10398 10402 10405 10408 10413 10417 10421 10424 10428 10431 10434 10437 10438 10439 10441 10441 10441 10442 10442 10442 10439 10435 10430 10425 10418 10414 10409 10404 10404 10405